GLO2004 SBGL-SBEG

Flight info

Callsign GLO2004
Flight time 3h 47m
Altitude 36000
Route EDNAM UM409 ESMAR DCT IRUMO
Aircraft B738/M-SDFGIKLORWXY/LB1

Departure

Time 2026-04-30 08:42
Airport Rio Galeão – Tom Jobim International Airport (SBGL)

Arrival

Time 2026-04-30 12:29
Airport Eduardo Gomes International Airport (SBEG)
Time Latitude Longitude Altitude Speed Heading
2026-04-30 08:30 -22.81101 -43.25307 21 ft 0 kts 76°
2026-04-30 08:35 -22.81101 -43.25308 22 ft 2 kts 76°
2026-04-30 08:36 -22.81105 -43.25325 25 ft 2 kts 76°
2026-04-30 08:36 -22.81109 -43.25343 25 ft 2 kts 75°
2026-04-30 08:36 -22.81113 -43.25360 22 ft 2 kts 75°
2026-04-30 08:36 -22.81117 -43.25377 23 ft 2 kts 75°
2026-04-30 08:37 -22.81117 -43.25378 23 ft 0 kts 75°
2026-04-30 08:38 -22.81115 -43.25374 24 ft 2 kts 61°
2026-04-30 08:38 -22.81098 -43.25367 24 ft 4 kts
2026-04-30 08:38 -22.81060 -43.25379 22 ft 7 kts 343°
2026-04-30 08:39 -22.80998 -43.25385 23 ft 10 kts 352°
2026-04-30 08:39 -22.80943 -43.25438 23 ft 11 kts 297°
2026-04-30 08:39 -22.80909 -43.25514 27 ft 12 kts 296°
2026-04-30 08:39 -22.80864 -43.25612 23 ft 18 kts 300°
2026-04-30 08:40 -22.80768 -43.25679 26 ft 18 kts 14°
2026-04-30 08:40 -22.80650 -43.25594 26 ft 22 kts 35°
2026-04-30 08:40 -22.80542 -43.25534 29 ft 16 kts 353°
2026-04-30 08:40 -22.80441 -43.25595 29 ft 18 kts 326°
2026-04-30 08:41 -22.80319 -43.25573 25 ft 21 kts 39°
2026-04-30 08:41 -22.80222 -43.25487 26 ft 11 kts 38°
2026-04-30 08:41 -22.80169 -43.25429 26 ft 12 kts 64°
2026-04-30 08:41 -22.80134 -43.25299 25 ft 39 kts 74°
2026-04-30 08:42 -22.79992 -43.24756 28 ft 109 kts 74°
2026-04-30 08:42 -22.79731 -43.23743 27 ft 168 kts 73°
2026-04-30 08:42 -22.79357 -43.22374 266 ft 201 kts 75°
2026-04-30 08:42 -22.79042 -43.20961 1388 ft 179 kts 76°
2026-04-30 08:43 -22.78772 -43.19701 2427 ft 169 kts 76°
2026-04-30 08:43 -22.78489 -43.18374 2815 ft 196 kts 76°
2026-04-30 08:43 -22.78159 -43.16828 3062 ft 223 kts 76°
2026-04-30 08:43 -22.77792 -43.15103 3305 ft 246 kts 76°
2026-04-30 08:44 -22.77392 -43.13212 3610 ft 267 kts 76°
2026-04-30 08:44 -22.76978 -43.11253 4342 ft 272 kts 76°
2026-04-30 08:44 -22.76555 -43.09251 5163 ft 275 kts 76°
2026-04-30 08:44 -22.76126 -43.07222 5970 ft 277 kts 77°
2026-04-30 08:45 -22.75693 -43.05177 6749 ft 280 kts 77°
2026-04-30 08:45 -22.75254 -43.03105 7484 ft 284 kts 77°
2026-04-30 08:45 -22.74512 -43.01125 8167 ft 288 kts 52°
2026-04-30 08:45 -22.72990 -42.99736 8898 ft 290 kts 24°
2026-04-30 08:46 -22.71031 -42.99252 9636 ft 292 kts 358°
2026-04-30 08:46 -22.69038 -42.99677 10309 ft 296 kts 339°
2026-04-30 08:46 -22.67068 -43.00558 10547 ft 318 kts 335°
2026-04-30 08:46 -22.64993 -43.01589 10733 ft 338 kts 334°
2026-04-30 08:47 -22.62823 -43.02692 11155 ft 348 kts 334°
2026-04-30 08:47 -22.60622 -43.03807 11807 ft 350 kts 334°
2026-04-30 08:47 -22.58414 -43.04915 12505 ft 351 kts 334°
2026-04-30 08:47 -22.56191 -43.06021 13190 ft 353 kts 334°
2026-04-30 08:48 -22.53951 -43.07127 13859 ft 355 kts 334°
2026-04-30 08:48 -22.51691 -43.08238 14374 ft 357 kts 334°
2026-04-30 08:48 -22.49416 -43.09353 14884 ft 360 kts 334°
2026-04-30 08:48 -22.47126 -43.10473 15431 ft 363 kts 333°
2026-04-30 08:49 -22.44817 -43.11601 16012 ft 365 kts 333°
2026-04-30 08:49 -22.42672 -43.12647 16504 ft 367 kts 333°
2026-04-30 08:49 -22.40327 -43.13791 17032 ft 370 kts 333°
2026-04-30 08:49 -22.37972 -43.14938 17558 ft 372 kts 333°
2026-04-30 08:50 -22.35606 -43.16092 18081 ft 375 kts 333°
2026-04-30 08:50 -22.33223 -43.17253 18574 ft 377 kts 333°
2026-04-30 08:50 -22.30821 -43.18423 19042 ft 379 kts 333°
2026-04-30 08:50 -22.28420 -43.19592 19503 ft 381 kts 333°
2026-04-30 08:51 -22.25996 -43.20771 19956 ft 382 kts 333°
2026-04-30 08:51 -22.23568 -43.21953 20417 ft 384 kts 333°
2026-04-30 08:51 -22.21128 -43.23139 20864 ft 386 kts 333°
2026-04-30 08:51 -22.18677 -43.24331 21305 ft 388 kts 333°
2026-04-30 08:52 -22.16213 -43.25528 21753 ft 389 kts 332°
2026-04-30 08:52 -22.13735 -43.26731 22196 ft 391 kts 333°
2026-04-30 08:52 -22.11277 -43.27925 22608 ft 393 kts 333°
2026-04-30 08:52 -22.08747 -43.29153 23021 ft 395 kts 333°
2026-04-30 08:53 -22.06270 -43.30355 23405 ft 397 kts 333°
2026-04-30 08:53 -22.03745 -43.31579 23780 ft 399 kts 332°
2026-04-30 08:53 -22.01207 -43.32810 24097 ft 401 kts 333°
2026-04-30 08:53 -21.98655 -43.34047 24410 ft 403 kts 332°
2026-04-30 08:54 -21.96083 -43.35292 24711 ft 406 kts 333°
2026-04-30 08:54 -21.93502 -43.36542 25028 ft 408 kts 333°
2026-04-30 08:54 -21.90907 -43.37798 25328 ft 410 kts 333°
2026-04-30 08:54 -21.88294 -43.39063 25627 ft 412 kts 333°
2026-04-30 08:55 -21.85667 -43.40334 25915 ft 414 kts 333°
2026-04-30 08:55 -21.83031 -43.41608 26204 ft 416 kts 333°
2026-04-30 08:55 -21.80425 -43.42972 26470 ft 417 kts 328°
2026-04-30 08:55 -21.77908 -43.44529 26754 ft 418 kts 327°
2026-04-30 08:56 -21.75394 -43.46118 27040 ft 420 kts 327°
2026-04-30 08:56 -21.72864 -43.47720 27319 ft 422 kts 327°
2026-04-30 08:56 -21.70325 -43.49320 27590 ft 424 kts 327°
2026-04-30 08:56 -21.67762 -43.50925 27848 ft 427 kts 327°
2026-04-30 08:57 -21.65224 -43.52508 28109 ft 428 kts 327°
2026-04-30 08:57 -21.62633 -43.54120 28352 ft 431 kts 327°
2026-04-30 08:57 -21.60034 -43.55737 28600 ft 433 kts 327°
2026-04-30 08:57 -21.57422 -43.57360 28844 ft 435 kts 327°
2026-04-30 08:58 -21.54798 -43.58991 29075 ft 437 kts 327°
2026-04-30 08:58 -21.52155 -43.60631 29294 ft 439 kts 327°
2026-04-30 08:58 -21.49504 -43.62275 29510 ft 441 kts 327°
2026-04-30 08:58 -21.46843 -43.63925 29754 ft 443 kts 327°
2026-04-30 08:59 -21.44172 -43.65581 29980 ft 444 kts 327°
2026-04-30 08:59 -21.41483 -43.67248 30161 ft 447 kts 327°
2026-04-30 08:59 -21.38790 -43.68916 30397 ft 447 kts 327°
2026-04-30 08:59 -21.36104 -43.70579 30732 ft 445 kts 327°
2026-04-30 09:00 -21.33427 -43.72236 31056 ft 443 kts 327°
2026-04-30 09:00 -21.30760 -43.73887 31290 ft 443 kts 327°
2026-04-30 09:00 -21.28080 -43.75545 31517 ft 444 kts 327°
2026-04-30 09:00 -21.25579 -43.77101 31775 ft 443 kts 326°
2026-04-30 09:01 -21.22944 -43.78797 32086 ft 442 kts 326°
2026-04-30 09:01 -21.20325 -43.80516 32378 ft 441 kts 325°
2026-04-30 09:01 -21.17748 -43.82216 32651 ft 440 kts 325°
2026-04-30 09:01 -21.15138 -43.83937 32922 ft 440 kts 325°
2026-04-30 09:02 -21.09926 -43.87357 33493 ft 439 kts 325°
2026-04-30 09:02 -21.07320 -43.89060 33768 ft 438 kts 325°
2026-04-30 09:02 -21.04716 -43.90759 34039 ft 438 kts 325°
2026-04-30 09:03 -21.02099 -43.92465 34289 ft 437 kts 325°
2026-04-30 09:03 -20.99506 -43.94155 34520 ft 436 kts 325°
2026-04-30 09:03 -20.96913 -43.95844 34711 ft 437 kts 325°
2026-04-30 09:03 -20.94347 -43.97516 34911 ft 437 kts 325°
2026-04-30 09:04 -20.91755 -43.99204 35144 ft 436 kts 325°
2026-04-30 09:04 -20.89165 -44.00889 35341 ft 436 kts 325°
2026-04-30 09:04 -20.86574 -44.02575 35525 ft 436 kts 325°
2026-04-30 09:04 -20.83975 -44.04265 35705 ft 436 kts 325°
2026-04-30 09:05 -20.81391 -44.05946 35926 ft 435 kts 325°
2026-04-30 09:05 -20.78799 -44.07629 36123 ft 435 kts 325°
2026-04-30 09:05 -20.73584 -44.11002 36144 ft 439 kts 326°
2026-04-30 09:06 -20.68368 -44.14380 36133 ft 436 kts 325°
2026-04-30 09:06 -20.63212 -44.17744 36134 ft 433 kts 325°
2026-04-30 09:07 -20.58083 -44.21035 36135 ft 431 kts 326°
2026-04-30 09:07 -20.52941 -44.24317 36143 ft 431 kts 326°
2026-04-30 09:08 -20.47796 -44.27607 36145 ft 431 kts 326°
2026-04-30 09:08 -20.42642 -44.30905 36146 ft 433 kts 326°
2026-04-30 09:09 -20.37468 -44.34249 36151 ft 435 kts 325°
2026-04-30 09:09 -20.32273 -44.37613 36143 ft 438 kts 325°
2026-04-30 09:10 -20.27045 -44.40991 36140 ft 440 kts 326°
2026-04-30 09:10 -20.21794 -44.44380 36137 ft 442 kts 325°
2026-04-30 09:11 -20.16555 -44.47758 36134 ft 443 kts 326°
2026-04-30 09:11 -20.11272 -44.51157 36130 ft 443 kts 326°
2026-04-30 09:12 -20.05979 -44.54538 36125 ft 443 kts 326°
2026-04-30 09:12 -20.00693 -44.57910 36124 ft 442 kts 326°
2026-04-30 09:13 -19.95432 -44.61266 36122 ft 441 kts 326°
2026-04-30 09:13 -19.90216 -44.64593 36122 ft 439 kts 326°
2026-04-30 09:14 -19.84980 -44.67931 36119 ft 438 kts 326°
2026-04-30 09:14 -19.79761 -44.71255 36116 ft 437 kts 326°
2026-04-30 09:15 -19.75429 -44.74012 36118 ft 437 kts 326°
2026-04-30 09:15 -19.70214 -44.77329 36114 ft 437 kts 326°
2026-04-30 09:16 -19.64992 -44.80649 36120 ft 437 kts 326°
2026-04-30 09:16 -19.59776 -44.83962 36114 ft 437 kts 326°
2026-04-30 09:17 -19.54544 -44.87282 36112 ft 438 kts 326°
2026-04-30 09:17 -19.49302 -44.90607 36112 ft 439 kts 326°
2026-04-30 09:18 -19.44084 -44.93918 36110 ft 440 kts 326°
2026-04-30 09:18 -19.38824 -44.97254 36108 ft 441 kts 326°
2026-04-30 09:19 -19.33553 -45.00595 36105 ft 442 kts 326°
2026-04-30 09:19 -19.28268 -45.03942 36105 ft 443 kts 326°
2026-04-30 09:20 -19.22964 -45.07298 36102 ft 444 kts 327°
2026-04-30 09:20 -19.17665 -45.10648 36103 ft 444 kts 327°
2026-04-30 09:21 -19.12355 -45.14004 36097 ft 444 kts 327°
2026-04-30 09:21 -19.07043 -45.17357 36095 ft 444 kts 327°
2026-04-30 09:22 -19.01740 -45.20703 36094 ft 444 kts 327°
2026-04-30 09:22 -18.96434 -45.24048 36095 ft 444 kts 327°
2026-04-30 09:23 -18.91164 -45.27367 36093 ft 444 kts 327°
2026-04-30 09:23 -18.85866 -45.30702 36094 ft 443 kts 327°
2026-04-30 09:24 -18.80564 -45.34038 36088 ft 443 kts 327°
2026-04-30 09:24 -18.75262 -45.37370 36088 ft 443 kts 327°
2026-04-30 09:25 -18.69964 -45.40698 36088 ft 443 kts 327°
2026-04-30 09:25 -18.64664 -45.44025 36088 ft 444 kts 327°
2026-04-30 09:26 -18.59356 -45.47354 36088 ft 444 kts 327°
2026-04-30 09:26 -18.54045 -45.50683 36088 ft 444 kts 327°
2026-04-30 09:27 -18.48738 -45.54008 36089 ft 444 kts 327°
2026-04-30 09:27 -18.43468 -45.57337 36092 ft 444 kts 324°
2026-04-30 09:28 -18.38465 -45.61145 36091 ft 444 kts 321°
2026-04-30 09:28 -18.33533 -45.65065 36095 ft 444 kts 321°
2026-04-30 09:29 -18.28588 -45.68965 36096 ft 445 kts 321°
2026-04-30 09:29 -18.23615 -45.72852 36097 ft 445 kts 322°
2026-04-30 09:30 -18.18630 -45.76734 36096 ft 446 kts 322°
2026-04-30 09:30 -18.13640 -45.80617 36095 ft 446 kts 322°
2026-04-30 09:31 -18.08686 -45.84471 36096 ft 446 kts 322°
2026-04-30 09:31 -18.03684 -45.88360 36098 ft 447 kts 322°
2026-04-30 09:32 -17.98688 -45.92241 36093 ft 447 kts 322°
2026-04-30 09:32 -17.93686 -45.96126 36087 ft 447 kts 322°
2026-04-30 09:33 -17.88681 -46.00009 36091 ft 447 kts 322°
2026-04-30 09:33 -17.83674 -46.03891 36088 ft 447 kts 322°
2026-04-30 09:34 -17.78673 -46.07769 36080 ft 447 kts 322°
2026-04-30 09:34 -17.73699 -46.11625 36082 ft 447 kts 322°
2026-04-30 09:35 -17.68696 -46.15501 36077 ft 447 kts 322°
2026-04-30 09:35 -17.63681 -46.19384 36076 ft 447 kts 322°
2026-04-30 09:36 -17.58666 -46.23264 36073 ft 447 kts 322°
2026-04-30 09:36 -17.53688 -46.27113 36072 ft 447 kts 322°
2026-04-30 09:37 -17.48675 -46.30986 36071 ft 447 kts 322°
2026-04-30 09:37 -17.43666 -46.34854 36070 ft 448 kts 322°
2026-04-30 09:38 -17.38649 -46.38725 36073 ft 448 kts 322°
2026-04-30 09:38 -17.33628 -46.42596 36066 ft 448 kts 322°
2026-04-30 09:39 -17.28606 -46.46466 36070 ft 448 kts 322°
2026-04-30 09:39 -17.23585 -46.50332 36067 ft 448 kts 322°
2026-04-30 09:40 -17.18561 -46.54199 36070 ft 449 kts 322°
2026-04-30 09:40 -17.13533 -46.58066 36072 ft 449 kts 322°
2026-04-30 09:41 -17.08683 -46.62178 36072 ft 448 kts 318°
2026-04-30 09:41 -17.03998 -46.66425 36073 ft 449 kts 318°
2026-04-30 09:42 -16.99279 -46.70688 36074 ft 449 kts 318°
2026-04-30 09:42 -16.94532 -46.74931 36071 ft 449 kts 319°
2026-04-30 09:43 -16.89773 -46.79161 36073 ft 449 kts 319°
2026-04-30 09:43 -16.85018 -46.83384 36077 ft 449 kts 319°
2026-04-30 09:44 -16.80258 -46.87609 36076 ft 449 kts 319°
2026-04-30 09:44 -16.75496 -46.91833 36077 ft 449 kts 319°
2026-04-30 09:45 -16.70739 -46.96051 36079 ft 449 kts 319°
2026-04-30 09:45 -16.66005 -47.00245 36076 ft 449 kts 319°
2026-04-30 09:46 -16.61239 -47.04465 36086 ft 449 kts 319°
2026-04-30 09:46 -16.56477 -47.08679 36082 ft 449 kts 319°
2026-04-30 09:47 -16.51708 -47.12896 36084 ft 449 kts 319°
2026-04-30 09:47 -16.46944 -47.17106 36081 ft 449 kts 319°
2026-04-30 09:48 -16.42173 -47.21321 36083 ft 449 kts 319°
2026-04-30 09:48 -16.37464 -47.25594 36082 ft 449 kts 315°
2026-04-30 09:49 -16.33046 -47.30194 36085 ft 449 kts 314°
2026-04-30 09:49 -16.28684 -47.34849 36087 ft 449 kts 314°
2026-04-30 09:50 -16.24301 -47.39480 36088 ft 449 kts 314°
2026-04-30 09:50 -16.19894 -47.44097 36087 ft 449 kts 314°
2026-04-30 09:51 -16.15514 -47.48674 36082 ft 449 kts 314°
2026-04-30 09:51 -16.11099 -47.53285 36086 ft 450 kts 314°
2026-04-30 09:52 -16.06681 -47.57898 36087 ft 450 kts 314°
2026-04-30 09:52 -16.02266 -47.62504 36097 ft 450 kts 314°
2026-04-30 09:53 -15.97844 -47.67115 36116 ft 450 kts 315°
2026-04-30 09:53 -15.93422 -47.71724 36127 ft 450 kts 315°
2026-04-30 09:54 -15.88997 -47.76334 36144 ft 450 kts 315°
2026-04-30 09:54 -15.84595 -47.80915 36154 ft 450 kts 315°
2026-04-30 09:55 -15.80177 -47.85522 36158 ft 450 kts 314°
2026-04-30 09:55 -15.75761 -47.90130 36153 ft 450 kts 314°
2026-04-30 09:56 -15.71342 -47.94739 36089 ft 450 kts 315°
2026-04-30 09:56 -15.66923 -47.99344 36092 ft 450 kts 315°
2026-04-30 09:57 -15.62505 -48.03945 36082 ft 450 kts 315°
2026-04-30 09:57 -15.58094 -48.08537 36085 ft 449 kts 315°
2026-04-30 09:58 -15.53677 -48.13132 36086 ft 449 kts 315°
2026-04-30 09:58 -15.49264 -48.17719 36078 ft 449 kts 315°
2026-04-30 09:59 -15.40110 -48.26544 36075 ft 449 kts 318°
2026-04-30 10:00 -15.33212 -48.33069 36068 ft 449 kts 317°
2026-04-30 10:01 -15.26307 -48.39651 36059 ft 450 kts 317°
2026-04-30 10:02 -15.19399 -48.46232 36059 ft 450 kts 317°
2026-04-30 10:02 -15.14794 -48.50614 36059 ft 450 kts 317°
2026-04-30 10:03 -15.10186 -48.54997 36053 ft 450 kts 317°
2026-04-30 10:03 -15.05571 -48.59386 36050 ft 450 kts 317°
2026-04-30 10:04 -15.01731 -48.63032 36045 ft 450 kts 318°
2026-04-30 10:04 -14.97088 -48.67394 36042 ft 451 kts 318°
2026-04-30 10:05 -14.92441 -48.71741 36038 ft 451 kts 318°
2026-04-30 10:05 -14.87789 -48.76094 36037 ft 451 kts 318°
2026-04-30 10:06 -14.83141 -48.80445 36036 ft 451 kts 318°
2026-04-30 10:06 -14.78484 -48.84804 36030 ft 451 kts 318°
2026-04-30 10:07 -14.73855 -48.89134 36023 ft 452 kts 318°
2026-04-30 10:07 -14.69194 -48.93491 36022 ft 451 kts 318°
2026-04-30 10:08 -14.64539 -48.97840 36019 ft 451 kts 318°
2026-04-30 10:08 -14.59879 -49.02192 36014 ft 451 kts 318°
2026-04-30 10:09 -14.55220 -49.06539 36009 ft 451 kts 318°
2026-04-30 10:09 -14.50567 -49.10878 36005 ft 451 kts 318°
2026-04-30 10:10 -14.45910 -49.15218 36003 ft 451 kts 318°
2026-04-30 10:10 -14.41260 -49.19551 36002 ft 451 kts 318°
2026-04-30 10:11 -14.36599 -49.23890 35994 ft 450 kts 318°
2026-04-30 10:11 -14.31943 -49.28222 35995 ft 450 kts 318°
2026-04-30 10:12 -14.27293 -49.32546 35993 ft 450 kts 318°
2026-04-30 10:12 -14.22670 -49.36842 35981 ft 450 kts 318°
2026-04-30 10:13 -14.18023 -49.41159 35983 ft 450 kts 318°
2026-04-30 10:13 -14.13371 -49.45477 35977 ft 450 kts 318°
2026-04-30 10:14 -14.08727 -49.49787 35979 ft 449 kts 318°
2026-04-30 10:14 -14.01745 -49.56249 35971 ft 449 kts 319°
2026-04-30 10:15 -13.97027 -49.60474 35968 ft 449 kts 319°
2026-04-30 10:15 -13.92296 -49.64670 35967 ft 449 kts 319°
2026-04-30 10:16 -13.87567 -49.68876 35966 ft 449 kts 319°
2026-04-30 10:17 -13.80513 -49.75164 35964 ft 449 kts 319°
2026-04-30 10:17 -13.73424 -49.81481 35961 ft 449 kts 319°
2026-04-30 10:18 -13.68688 -49.85699 35959 ft 450 kts 319°
2026-04-30 10:19 -13.61590 -49.92015 35959 ft 450 kts 319°
2026-04-30 10:19 -13.56848 -49.96232 35957 ft 450 kts 319°
2026-04-30 10:20 -13.52141 -50.00416 35957 ft 450 kts 319°
2026-04-30 10:20 -13.45031 -50.06730 35958 ft 450 kts 319°
2026-04-30 10:21 -13.40289 -50.10939 35957 ft 450 kts 319°
2026-04-30 10:21 -13.35552 -50.15142 35956 ft 450 kts 320°
2026-04-30 10:22 -13.30811 -50.19346 35952 ft 450 kts 320°
2026-04-30 10:22 -13.26074 -50.23543 35950 ft 450 kts 320°
2026-04-30 10:23 -13.21328 -50.27748 35950 ft 450 kts 320°
2026-04-30 10:23 -13.16624 -50.31912 35952 ft 450 kts 320°
2026-04-30 10:24 -13.11885 -50.36105 35946 ft 449 kts 320°
2026-04-30 10:24 -13.07155 -50.40290 35947 ft 449 kts 320°
2026-04-30 10:25 -13.02427 -50.44472 35947 ft 449 kts 320°
2026-04-30 10:25 -12.97694 -50.48655 35945 ft 449 kts 320°
2026-04-30 10:26 -12.92963 -50.52836 35945 ft 449 kts 320°
2026-04-30 10:26 -12.88236 -50.57010 35946 ft 448 kts 320°
2026-04-30 10:27 -12.83507 -50.61184 35943 ft 448 kts 320°
2026-04-30 10:27 -12.78778 -50.65355 35944 ft 448 kts 320°
2026-04-30 10:28 -12.74086 -50.69492 35943 ft 448 kts 320°
2026-04-30 10:28 -12.69357 -50.73660 35939 ft 448 kts 320°
2026-04-30 10:29 -12.64631 -50.77823 35941 ft 448 kts 320°
2026-04-30 10:29 -12.59897 -50.81990 35944 ft 448 kts 320°
2026-04-30 10:30 -12.55167 -50.86152 35942 ft 449 kts 320°
2026-04-30 10:30 -12.50436 -50.90314 35943 ft 449 kts 320°
2026-04-30 10:31 -12.45700 -50.94477 35942 ft 449 kts 320°
2026-04-30 10:31 -12.40958 -50.98643 35940 ft 449 kts 320°
2026-04-30 10:32 -12.36248 -51.02780 35938 ft 449 kts 320°
2026-04-30 10:32 -12.31502 -51.06947 35943 ft 449 kts 320°
2026-04-30 10:33 -12.26759 -51.11108 35942 ft 449 kts 320°
2026-04-30 10:33 -12.22017 -51.15268 35943 ft 449 kts 320°
2026-04-30 10:34 -12.17275 -51.19424 35939 ft 449 kts 320°
2026-04-30 10:34 -12.12571 -51.23546 35943 ft 449 kts 320°
2026-04-30 10:35 -12.07836 -51.27695 35944 ft 448 kts 321°
2026-04-30 10:35 -12.03103 -51.31841 35949 ft 448 kts 321°
2026-04-30 10:36 -11.98361 -51.35993 35947 ft 448 kts 321°
2026-04-30 10:36 -11.93628 -51.40135 35946 ft 448 kts 321°
2026-04-30 10:37 -11.88889 -51.44280 35940 ft 448 kts 321°
2026-04-30 10:37 -11.84154 -51.48420 35945 ft 448 kts 321°
2026-04-30 10:38 -11.79414 -51.52562 35946 ft 448 kts 321°
2026-04-30 10:38 -11.74679 -51.56698 35942 ft 448 kts 321°
2026-04-30 10:39 -11.69936 -51.60839 35941 ft 448 kts 321°
2026-04-30 10:39 -11.65223 -51.64952 35945 ft 448 kts 321°
2026-04-30 10:40 -11.60477 -51.69091 35943 ft 449 kts 321°
2026-04-30 10:40 -11.55735 -51.73226 35943 ft 449 kts 321°
2026-04-30 10:41 -11.50988 -51.77363 35943 ft 448 kts 321°
2026-04-30 10:41 -11.46246 -51.81494 35939 ft 449 kts 321°
2026-04-30 10:42 -11.41492 -51.85633 35940 ft 449 kts 321°
2026-04-30 10:42 -11.36744 -51.89766 35944 ft 448 kts 321°
2026-04-30 10:43 -11.32032 -51.93866 35942 ft 448 kts 321°
2026-04-30 10:43 -11.27287 -51.97988 35938 ft 448 kts 321°
2026-04-30 10:44 -11.22498 -52.02064 35941 ft 448 kts 321°
2026-04-30 10:44 -11.17695 -52.06118 35941 ft 448 kts 321°
2026-04-30 10:45 -11.12898 -52.10175 35943 ft 448 kts 321°
2026-04-30 10:45 -11.08111 -52.14228 35937 ft 448 kts 321°
2026-04-30 10:46 -11.03323 -52.18284 35942 ft 447 kts 321°
2026-04-30 10:46 -10.98537 -52.22337 35939 ft 447 kts 321°
2026-04-30 10:47 -10.93755 -52.26384 35944 ft 447 kts 321°
2026-04-30 10:47 -10.88989 -52.30416 35941 ft 447 kts 321°
2026-04-30 10:48 -10.84206 -52.34461 35943 ft 447 kts 321°
2026-04-30 10:48 -10.79415 -52.38511 35944 ft 448 kts 321°
2026-04-30 10:49 -10.74626 -52.42557 35944 ft 448 kts 321°
2026-04-30 10:49 -10.69861 -52.46581 35942 ft 448 kts 321°
2026-04-30 10:50 -10.65061 -52.50633 35942 ft 448 kts 321°
2026-04-30 10:50 -10.60263 -52.54682 35943 ft 448 kts 321°
2026-04-30 10:51 -10.55458 -52.58735 35943 ft 449 kts 321°
2026-04-30 10:51 -10.50651 -52.62788 35945 ft 449 kts 321°
2026-04-30 10:52 -10.45847 -52.66836 35946 ft 449 kts 321°
2026-04-30 10:52 -10.41849 -52.70205 35944 ft 449 kts 321°
2026-04-30 10:53 -10.37033 -52.74260 35946 ft 449 kts 321°
2026-04-30 10:53 -10.31444 -52.78964 35947 ft 449 kts 321°
2026-04-30 10:54 -10.27410 -52.82359 35945 ft 449 kts 321°
2026-04-30 10:54 -10.22595 -52.86409 35949 ft 449 kts 321°
2026-04-30 10:55 -10.17812 -52.90431 35946 ft 449 kts 321°
2026-04-30 10:55 -10.12992 -52.94481 35944 ft 449 kts 321°
2026-04-30 10:56 -10.08179 -52.98525 35946 ft 449 kts 321°
2026-04-30 10:56 -10.03373 -53.02562 35947 ft 449 kts 321°
2026-04-30 10:57 -9.98560 -53.06602 35947 ft 449 kts 321°
2026-04-30 10:57 -9.93753 -53.10637 35948 ft 449 kts 321°
2026-04-30 10:58 -9.88981 -53.14711 35944 ft 449 kts 319°
2026-04-30 10:58 -9.84382 -53.18998 35949 ft 449 kts 317°
2026-04-30 10:59 -9.79820 -53.23315 35949 ft 449 kts 318°
2026-04-30 10:59 -9.75234 -53.27612 35948 ft 449 kts 318°
2026-04-30 11:00 -9.70666 -53.31868 35945 ft 449 kts 318°
2026-04-30 11:00 -9.66067 -53.36148 35950 ft 448 kts 318°
2026-04-30 11:01 -9.61471 -53.40426 35948 ft 448 kts 318°
2026-04-30 11:01 -9.56881 -53.44698 35953 ft 448 kts 318°
2026-04-30 11:02 -9.52285 -53.48969 35949 ft 448 kts 318°
2026-04-30 11:02 -9.47688 -53.53227 35946 ft 448 kts 319°
2026-04-30 11:03 -9.43088 -53.57488 35948 ft 448 kts 318°
2026-04-30 11:04 -9.36223 -53.63847 35953 ft 448 kts 319°
2026-04-30 11:04 -9.31630 -53.68100 35953 ft 448 kts 318°
2026-04-30 11:05 -9.27032 -53.72355 35953 ft 447 kts 319°
2026-04-30 11:05 -9.22441 -53.76604 35939 ft 447 kts 319°
2026-04-30 11:06 -9.17844 -53.80856 35946 ft 448 kts 319°
2026-04-30 11:06 -9.13242 -53.85111 35956 ft 449 kts 319°
2026-04-30 11:07 -9.08623 -53.89380 35954 ft 450 kts 319°
2026-04-30 11:07 -9.03997 -53.93654 35954 ft 451 kts 319°
2026-04-30 11:08 -8.99344 -53.97952 35957 ft 452 kts 319°
2026-04-30 11:08 -8.94728 -54.02214 35956 ft 453 kts 319°
2026-04-30 11:09 -8.90073 -54.06510 35954 ft 453 kts 319°
2026-04-30 11:09 -8.85405 -54.10817 35954 ft 453 kts 319°
2026-04-30 11:10 -8.80746 -54.15114 35954 ft 453 kts 319°
2026-04-30 11:10 -8.76083 -54.19414 35956 ft 453 kts 319°
2026-04-30 11:11 -8.71427 -54.23704 35959 ft 453 kts 319°
2026-04-30 11:11 -8.66774 -54.27992 35954 ft 453 kts 319°
2026-04-30 11:12 -8.62149 -54.32251 35958 ft 452 kts 319°
2026-04-30 11:12 -8.57502 -54.36529 35951 ft 452 kts 319°
2026-04-30 11:13 -8.52853 -54.40808 35954 ft 451 kts 319°
2026-04-30 11:13 -8.48207 -54.45082 35951 ft 451 kts 319°
2026-04-30 11:14 -8.43562 -54.49354 35957 ft 451 kts 319°
2026-04-30 11:14 -8.38922 -54.53620 35955 ft 451 kts 319°
2026-04-30 11:15 -8.34277 -54.57889 35952 ft 451 kts 319°
2026-04-30 11:15 -8.29636 -54.62153 35950 ft 451 kts 319°
2026-04-30 11:16 -8.24988 -54.66422 35954 ft 451 kts 319°
2026-04-30 11:16 -8.20369 -54.70663 35954 ft 452 kts 319°
2026-04-30 11:17 -8.15718 -54.74933 35954 ft 452 kts 319°
2026-04-30 11:17 -8.11068 -54.79199 35953 ft 452 kts 319°
2026-04-30 11:18 -8.06412 -54.83471 35951 ft 452 kts 319°
2026-04-30 11:18 -7.99426 -54.89876 35952 ft 452 kts 319°
2026-04-30 11:19 -7.94760 -54.94153 35949 ft 452 kts 319°
2026-04-30 11:19 -7.90106 -54.98416 35950 ft 452 kts 319°
2026-04-30 11:20 -7.85476 -55.02657 35948 ft 452 kts 319°
2026-04-30 11:20 -7.80816 -55.06925 35951 ft 452 kts 319°
2026-04-30 11:21 -7.76156 -55.11191 35950 ft 452 kts 319°
2026-04-30 11:21 -7.71490 -55.15460 35952 ft 452 kts 319°
2026-04-30 11:22 -7.66860 -55.19696 35950 ft 452 kts 319°
2026-04-30 11:22 -7.62204 -55.23954 35954 ft 452 kts 319°
2026-04-30 11:23 -7.57543 -55.28216 35951 ft 452 kts 319°
2026-04-30 11:24 -7.50553 -55.34605 35952 ft 452 kts 319°
2026-04-30 11:24 -7.45893 -55.38863 35950 ft 452 kts 319°
2026-04-30 11:25 -7.38906 -55.45248 35954 ft 452 kts 319°
2026-04-30 11:26 -7.29614 -55.53792 35953 ft 452 kts 319°
2026-04-30 11:26 -7.24944 -55.57978 35953 ft 452 kts 320°
2026-04-30 11:27 -7.20122 -55.62102 35952 ft 452 kts 321°
2026-04-30 11:27 -7.15354 -55.66170 35953 ft 452 kts 320°
2026-04-30 11:28 -7.08178 -55.72333 35950 ft 452 kts 320°
2026-04-30 11:29 -7.03393 -55.76453 35956 ft 452 kts 320°
2026-04-30 11:29 -6.96218 -55.82633 35952 ft 452 kts 320°
2026-04-30 11:30 -6.89036 -55.88813 35954 ft 452 kts 320°
2026-04-30 11:31 -6.84256 -55.92925 35958 ft 452 kts 320°
2026-04-30 11:31 -6.79470 -55.97041 35954 ft 452 kts 320°
2026-04-30 11:32 -6.74684 -56.01156 35958 ft 452 kts 320°
2026-04-30 11:32 -6.69904 -56.05265 35954 ft 452 kts 320°
2026-04-30 11:33 -6.62730 -56.11429 35954 ft 452 kts 320°
2026-04-30 11:33 -6.57951 -56.15534 35953 ft 452 kts 320°
2026-04-30 11:34 -6.53200 -56.19614 35958 ft 452 kts 320°
2026-04-30 11:34 -6.48420 -56.23718 35955 ft 451 kts 320°
2026-04-30 11:35 -6.43647 -56.27815 35954 ft 451 kts 320°
2026-04-30 11:35 -6.38874 -56.31910 35952 ft 451 kts 320°
2026-04-30 11:36 -6.34095 -56.36010 35949 ft 451 kts 320°
2026-04-30 11:36 -6.29322 -56.40104 35951 ft 451 kts 320°
2026-04-30 11:37 -6.24542 -56.44202 35954 ft 451 kts 320°
2026-04-30 11:37 -6.19761 -56.48301 35950 ft 452 kts 320°
2026-04-30 11:38 -6.14978 -56.52400 35949 ft 451 kts 320°
2026-04-30 11:38 -6.10200 -56.56494 35949 ft 452 kts 320°
2026-04-30 11:39 -6.06224 -56.59900 35948 ft 452 kts 320°
2026-04-30 11:39 -6.00633 -56.64689 35953 ft 451 kts 321°
2026-04-30 11:40 -5.96656 -56.68094 35953 ft 452 kts 320°
2026-04-30 11:40 -5.91875 -56.72187 35946 ft 452 kts 320°
2026-04-30 11:41 -5.87095 -56.76278 35951 ft 451 kts 320°
2026-04-30 11:41 -5.82340 -56.80348 35944 ft 451 kts 320°
2026-04-30 11:42 -5.77565 -56.84433 35946 ft 451 kts 320°
2026-04-30 11:42 -5.73447 -56.89170 35943 ft 452 kts 302°
2026-04-30 11:43 -5.70463 -56.94725 35940 ft 452 kts 298°
2026-04-30 11:43 -5.67572 -57.00331 35944 ft 452 kts 298°
2026-04-30 11:44 -5.64651 -57.05925 35945 ft 452 kts 298°
2026-04-30 11:44 -5.61707 -57.11497 35947 ft 452 kts 299°
2026-04-30 11:45 -5.58750 -57.17071 35947 ft 452 kts 299°
2026-04-30 11:45 -5.55794 -57.22638 35946 ft 452 kts 299°
2026-04-30 11:46 -5.52851 -57.28181 35944 ft 452 kts 299°
2026-04-30 11:46 -5.49894 -57.33752 35949 ft 452 kts 299°
2026-04-30 11:47 -5.46932 -57.39328 35944 ft 452 kts 299°
2026-04-30 11:47 -5.43970 -57.44905 35948 ft 452 kts 299°
2026-04-30 11:48 -5.41011 -57.50474 35944 ft 452 kts 299°
2026-04-30 11:48 -5.38052 -57.56042 35950 ft 452 kts 299°
2026-04-30 11:49 -5.35094 -57.61608 35948 ft 452 kts 299°
2026-04-30 11:49 -5.32129 -57.67183 35948 ft 452 kts 299°
2026-04-30 11:50 -5.29172 -57.72742 35948 ft 452 kts 299°
2026-04-30 11:50 -5.26233 -57.78265 35949 ft 451 kts 299°
2026-04-30 11:51 -5.23276 -57.83823 35947 ft 451 kts 299°
2026-04-30 11:51 -5.20320 -57.89376 35949 ft 451 kts 299°
2026-04-30 11:52 -5.17368 -57.94921 35948 ft 451 kts 299°
2026-04-30 11:52 -5.14409 -58.00476 35947 ft 451 kts 299°
2026-04-30 11:53 -5.11474 -58.05987 35947 ft 450 kts 299°
2026-04-30 11:53 -5.08518 -58.11533 35946 ft 450 kts 299°
2026-04-30 11:54 -5.05566 -58.17072 35946 ft 450 kts 299°
2026-04-30 11:54 -5.02609 -58.22619 35946 ft 451 kts 299°
2026-04-30 11:55 -4.99655 -58.28159 35949 ft 451 kts 299°
2026-04-30 11:55 -4.96712 -58.33677 35946 ft 451 kts 299°
2026-04-30 11:56 -4.93751 -58.39226 35945 ft 451 kts 299°
2026-04-30 11:56 -4.90786 -58.44781 35942 ft 451 kts 299°
2026-04-30 11:57 -4.87827 -58.50325 35945 ft 451 kts 299°
2026-04-30 11:57 -4.84864 -58.55876 35943 ft 451 kts 299°
2026-04-30 11:58 -4.81903 -58.61420 35943 ft 451 kts 299°
2026-04-30 11:58 -4.78958 -58.66934 35942 ft 451 kts 299°
2026-04-30 11:59 -4.75996 -58.72478 35943 ft 451 kts 299°
2026-04-30 11:59 -4.73121 -58.77858 35938 ft 451 kts 299°
2026-04-30 12:00 -4.70170 -58.83378 35925 ft 443 kts 300°
2026-04-30 12:00 -4.68737 -58.86062 35832 ft 431 kts 300°
2026-04-30 12:00 -4.67327 -58.88701 35344 ft 430 kts 300°
2026-04-30 12:01 -4.65898 -58.91370 34555 ft 439 kts 300°
2026-04-30 12:01 -4.64446 -58.94083 34005 ft 441 kts 300°
2026-04-30 12:01 -4.63010 -58.96765 33806 ft 433 kts 300°
2026-04-30 12:01 -4.61601 -58.99396 33526 ft 425 kts 300°
2026-04-30 12:02 -4.60207 -59.01998 33269 ft 424 kts 300°
2026-04-30 12:02 -4.58804 -59.04615 33044 ft 430 kts 300°
2026-04-30 12:02 -4.57378 -59.07275 32813 ft 435 kts 300°
2026-04-30 12:02 -4.55945 -59.09949 32552 ft 433 kts 300°
2026-04-30 12:03 -4.54529 -59.12593 32302 ft 429 kts 300°
2026-04-30 12:03 -4.51724 -59.17831 31786 ft 422 kts 300°
2026-04-30 12:03 -4.50342 -59.20411 31434 ft 418 kts 300°
2026-04-30 12:04 -4.48971 -59.22969 31066 ft 416 kts 300°
2026-04-30 12:04 -4.47606 -59.25517 30695 ft 414 kts 300°
2026-04-30 12:04 -4.46244 -59.28058 30290 ft 413 kts 300°
2026-04-30 12:04 -4.44901 -59.30562 29833 ft 413 kts 300°
2026-04-30 12:05 -4.43545 -59.33092 29356 ft 412 kts 300°
2026-04-30 12:05 -4.42193 -59.35613 28939 ft 409 kts 300°
2026-04-30 12:05 -4.40853 -59.38112 28495 ft 402 kts 300°
2026-04-30 12:05 -4.39539 -59.40566 27858 ft 399 kts 300°
2026-04-30 12:06 -4.38224 -59.43016 27151 ft 399 kts 300°
2026-04-30 12:06 -4.36913 -59.45460 26528 ft 396 kts 300°
2026-04-30 12:06 -4.35615 -59.47880 26117 ft 395 kts 300°
2026-04-30 12:06 -4.34313 -59.50306 25716 ft 394 kts 300°
2026-04-30 12:07 -4.33018 -59.52720 25327 ft 393 kts 300°
2026-04-30 12:07 -4.31729 -59.55123 24948 ft 391 kts 300°
2026-04-30 12:07 -4.30440 -59.57524 24553 ft 391 kts 300°
2026-04-30 12:07 -4.29170 -59.59890 24173 ft 390 kts 300°
2026-04-30 12:08 -4.27886 -59.62283 23797 ft 389 kts 300°
2026-04-30 12:08 -4.26602 -59.64674 23366 ft 389 kts 299°
2026-04-30 12:08 -4.25321 -59.67061 22955 ft 388 kts 299°
2026-04-30 12:08 -4.24047 -59.69434 22557 ft 385 kts 299°
2026-04-30 12:09 -4.22780 -59.71795 22175 ft 383 kts 299°
2026-04-30 12:09 -4.21520 -59.74141 21790 ft 381 kts 299°
2026-04-30 12:09 -4.20271 -59.76469 21425 ft 379 kts 299°
2026-04-30 12:09 -4.19025 -59.78789 21055 ft 377 kts 299°
2026-04-30 12:10 -4.17789 -59.81091 20694 ft 375 kts 299°
2026-04-30 12:10 -4.16555 -59.83388 20320 ft 373 kts 299°
2026-04-30 12:10 -4.15330 -59.85669 19957 ft 372 kts 299°
2026-04-30 12:10 -4.14123 -59.87917 19592 ft 370 kts 298°
2026-04-30 12:11 -4.12886 -59.90219 19214 ft 369 kts 298°
2026-04-30 12:11 -4.11671 -59.92479 18845 ft 369 kts 298°
2026-04-30 12:11 -4.10215 -59.94575 18454 ft 366 kts 317°
2026-04-30 12:11 -4.08174 -59.96047 18092 ft 361 kts 338°
2026-04-30 12:12 -4.05824 -59.96881 17718 ft 356 kts 345°
2026-04-30 12:12 -4.03485 -59.97577 17332 ft 354 kts 346°
2026-04-30 12:12 -4.01120 -59.98254 16971 ft 352 kts 346°
2026-04-30 12:12 -3.98772 -59.98927 16610 ft 350 kts 346°
2026-04-30 12:13 -3.96442 -59.99603 16262 ft 348 kts 346°
2026-04-30 12:13 -3.94122 -60.00284 15915 ft 346 kts 346°
2026-04-30 12:13 -3.91819 -60.00966 15569 ft 344 kts 346°
2026-04-30 12:13 -3.89526 -60.01649 15226 ft 343 kts 345°
2026-04-30 12:14 -3.87244 -60.02330 14877 ft 341 kts 345°
2026-04-30 12:14 -3.84978 -60.03007 14525 ft 340 kts 345°
2026-04-30 12:14 -3.82714 -60.03685 14184 ft 339 kts 345°
2026-04-30 12:14 -3.80461 -60.04359 13830 ft 338 kts 345°
2026-04-30 12:15 -3.78211 -60.05033 13450 ft 336 kts 345°
2026-04-30 12:15 -3.75977 -60.05702 13089 ft 334 kts 345°
2026-04-30 12:15 -3.73752 -60.06368 12742 ft 332 kts 345°
2026-04-30 12:15 -3.71547 -60.07028 12392 ft 330 kts 345°
2026-04-30 12:16 -3.69348 -60.07686 12049 ft 328 kts 345°
2026-04-30 12:16 -3.67197 -60.08330 11728 ft 326 kts 345°
2026-04-30 12:16 -3.65030 -60.08979 11389 ft 324 kts 345°
2026-04-30 12:16 -3.62881 -60.09622 11060 ft 322 kts 345°
2026-04-30 12:17 -3.58640 -60.10892 10386 ft 311 kts 346°
2026-04-30 12:17 -3.56599 -60.11503 10142 ft 299 kts 346°
2026-04-30 12:17 -3.54657 -60.12085 10011 ft 286 kts 346°
2026-04-30 12:18 -3.52757 -60.12653 9791 ft 284 kts 346°
2026-04-30 12:18 -3.50868 -60.13217 9488 ft 283 kts 346°
2026-04-30 12:18 -3.48984 -60.13780 9195 ft 282 kts 346°
2026-04-30 12:18 -3.47111 -60.14340 8912 ft 281 kts 346°
2026-04-30 12:19 -3.45245 -60.14897 8632 ft 280 kts 346°
2026-04-30 12:19 -3.43382 -60.15454 8343 ft 279 kts 345°
2026-04-30 12:19 -3.41525 -60.16009 8068 ft 278 kts 345°
2026-04-30 12:19 -3.39670 -60.16564 7781 ft 278 kts 345°
2026-04-30 12:20 -3.37817 -60.17118 7492 ft 277 kts 345°
2026-04-30 12:20 -3.35969 -60.17671 7210 ft 277 kts 345°
2026-04-30 12:20 -3.34125 -60.18222 6933 ft 276 kts 345°
2026-04-30 12:20 -3.32306 -60.18766 6660 ft 276 kts 345°
2026-04-30 12:21 -3.30466 -60.19316 6373 ft 276 kts 345°
2026-04-30 12:21 -3.28631 -60.19865 6078 ft 275 kts 345°
2026-04-30 12:21 -3.26794 -60.20414 5773 ft 274 kts 345°
2026-04-30 12:21 -3.24968 -60.20960 5494 ft 273 kts 345°
2026-04-30 12:22 -3.23119 -60.21389 5201 ft 272 kts 352°
2026-04-30 12:22 -3.21254 -60.21684 4938 ft 270 kts 353°
2026-04-30 12:22 -3.19399 -60.21969 4650 ft 270 kts 353°
2026-04-30 12:22 -3.17548 -60.22264 4375 ft 268 kts 352°
2026-04-30 12:23 -3.15709 -60.22565 4131 ft 267 kts 352°
2026-04-30 12:23 -3.13926 -60.22857 4003 ft 253 kts 354°
2026-04-30 12:23 -3.12220 -60.22943 3886 ft 238 kts
2026-04-30 12:23 -3.10610 -60.22915 3776 ft 225 kts
2026-04-30 12:24 -3.09109 -60.22892 3718 ft 209 kts
2026-04-30 12:24 -3.07677 -60.22877 3642 ft 201 kts
2026-04-30 12:24 -3.06313 -60.22867 3507 ft 191 kts
2026-04-30 12:24 -3.05088 -60.22521 3305 ft 180 kts 37°
2026-04-30 12:25 -3.04444 -60.21529 3139 ft 166 kts 79°
2026-04-30 12:25 -3.04201 -60.20448 2965 ft 153 kts 79°
2026-04-30 12:25 -3.04041 -60.19402 2761 ft 150 kts 84°
2026-04-30 12:25 -3.03919 -60.18368 2566 ft 150 kts 85°
2026-04-30 12:26 -3.03855 -60.17324 2378 ft 151 kts 89°
2026-04-30 12:26 -3.03839 -60.16273 2187 ft 151 kts 90°
2026-04-30 12:26 -3.03837 -60.15236 1992 ft 151 kts 91°
2026-04-30 12:26 -3.03839 -60.14193 1803 ft 149 kts 91°
2026-04-30 12:27 -3.03841 -60.13156 1611 ft 149 kts 91°
2026-04-30 12:27 -3.03843 -60.12116 1412 ft 149 kts 91°
2026-04-30 12:27 -3.03846 -60.11077 1214 ft 149 kts 91°
2026-04-30 12:27 -3.03848 -60.10045 1037 ft 149 kts 91°
2026-04-30 12:28 -3.03850 -60.09000 840 ft 151 kts 90°
2026-04-30 12:28 -3.03852 -60.08304 720 ft 151 kts 89°
2026-04-30 12:28 -3.03855 -60.06905 457 ft 150 kts 89°
2026-04-30 12:28 -3.03856 -60.06215 320 ft 149 kts 89°
2026-04-30 12:29 -3.03859 -60.05249 268 ft 118 kts 90°
2026-04-30 12:29 -3.03860 -60.04643 270 ft 65 kts 90°
2026-04-30 12:29 -3.03861 -60.04213 270 ft 58 kts 90°
2026-04-30 12:29 -3.03860 -60.03896 269 ft 33 kts 89°
2026-04-30 12:30 -3.03787 -60.03767 269 ft 23 kts
2026-04-30 12:30 -3.03681 -60.03854 269 ft 21 kts 284°
2026-04-30 12:30 -3.03643 -60.03992 269 ft 20 kts 287°
2026-04-30 12:30 -3.03606 -60.04126 269 ft 20 kts 284°
2026-04-30 12:31 -3.03560 -60.04251 269 ft 19 kts 301°
2026-04-30 12:31 -3.03469 -60.04343 269 ft 18 kts 329°
2026-04-30 12:31 -3.03355 -60.04387 269 ft 16 kts 331°
2026-04-30 12:31 -3.03344 -60.04489 269 ft 15 kts 259°
2026-04-30 12:32 -3.03333 -60.04579 269 ft 12 kts 345°
2026-04-30 12:32 -3.03275 -60.04580 269 ft 2 kts 358°
2026-04-30 12:32 -3.03271 -60.04581 269 ft 0 kts 358°